{"data":{"norad_id":51785,"intl_designator":"2022-017T","name":"STARLINK-3646","alt_names":[],"object_type":"PAYLOAD","status":"ACTIVE","operator":null,"country":"US","launch_date":"2022-02-25","launch_site_code":"AFWTR","launch_vehicle":null,"mission":null,"orbit_class":"UNKNOWN","rcs_meters":null,"size_class":null,"mass_kg":null,"dimensions":null,"purposes":["comms"],"wikipedia_slug":null,"has_3d_model":false,"image_url":null,"decayed_at":null,"tle_current":{"epoch":"2026-09-19T11:53:59.153856Z","epoch_age_seconds":138420,"freshness":"FRESH","line1":"1 51785U 22017T   26262.49582354 -.00000193  00000+0  55344-5 0  9995","line2":"2 51785  53.1599 174.0860 0001173  89.2327 270.8809 15.31700904251887","mean_motion":15.31700904,"eccentricity":0.0001173,"inclination_deg":53.1599,"raan_deg":174.086,"arg_perigee_deg":89.2327,"mean_anomaly_deg":270.8809,"bstar":5.5344e-6,"rev_number":25188,"period_min":94.013132475111,"perigee_km":469.93392749457,"apogee_km":471.54067340546,"semimajor_km":6848.87430045,"source":"CELESTRAK","updated_at":"2026-09-20T09:00:39.939397Z"}}}